星链-3374 (STARLINK-3374 )

导读

STARLINK-3374是美国太空探索技术公司SpaceX星链(Starlink)星座的一员,于2022年1月19日发射升空。星链计划旨在构建全球卫星互联网星座,为全球偏远地区、海洋空中场景提供高速低延迟互联网接入服务,该卫星服役至今,承担着组网通信任务,是星链全球互联网布局的组成部分。

Basic Information
目录编号:
51112
目录名称:
STARLINK-3374
国际标识:
2022-005J
轨道中心:
EARTH
卫星名称:
星链-3374
卫星全名:
星链-3374 (STARLINK-3374 )
卫星状态:
在轨 (已飞行1689 天)
发射日期:
2022-01-19 UTC
国别 :
美国 (US)
星等 :
--
Orbit Information
数据来源 国际轨道数据
星历时间: 2026-09-04T07:47:40+0800
8小时前
查看轨道信息
半长轴: 6840.88km
偏心率: 0.000124
轨道倾角: 53.161°
近地点辐角 88.258°
升交点赤经 202.955°
平近点角 271.857°
近地点: 461.894km
远地点: 463.592km
周期: 93.849分钟
每日圈数: 15.343869
Detailed Information
固有亮度:
5
最大亮度:
2.5
卫星平台:
Starlink v1.5
覆盖范围:
全球
运营商:
太空探索技术公司
运营商所在国:
美国
制造商(研发单位):
太空探索技术公司
制造商所在国:
美国
使用方式:
暂无
Satellite Introduction
星链(Starlink)计划是由太空探索技术公司(SpaceX)提出的一个巨型低轨卫星互联网星座项目,计划在2019年至2024年间在太空搭建由约1.2万颗卫星组成的“星链”网络,其中1584颗将部署在地球上空550千米处的近地轨道,并从2020年开始工作。该卫星仍在工作。
2D Orbit Map
3D Orbit Map
Orbit Altitude Analysis Chart
Orbit Inclination Analysis Chart
Orbit Comprehensive Analysis Chart
View Comprehensive Chart
Conjunction Data List
Event ID Objects TCA Miss Dist (km) Collision Risk Probability Collision Risk Index (CRI) Action
CDM_260905-050005-111206-475521
2026-09-05T
05:00:07+0000
0.808 km
远距离
3.348102E-5 中风险 0.65
CDM_260905-154001-821405-111221
2026-09-05T
15:40:36+0000
2.197 km
极远距离
2.217505E-6 低风险 0.42
CDM_260905-063305-111206-475521
2026-09-05T
06:33:55+0000
2.081 km
极远距离
1.660771E-6 低风险 0.39
CDM_260905-181405-111205-234721
2026-09-05T
18:14:48+0000
2.640 km
极远距离
1.204516E-6 低风险 0.37
CDM_260905-121605-111205-199421
2026-09-05T
12:16:10+0000
2.797 km
极远距离
1.065137E-6 低风险 0.36
CDM_260907-132205-110605-111221
2026-09-07T
13:22:19+0000
2.951 km
极远距离
2.251977E-7 极低风险 0.22